Regional Weather Roundup
Issued by NWS

Home | Current Version | Previous Version | Text Only | Print | Product List | Glossary Off
Versions: 1 2 3 4 5 6 7 8 9 10 11 12 13 14 15 16 17 18 19 20 21 22 23 24 25 26 27 28 29 30 31 32 33 34 35 36 37 38 39 40 41 42 43 44 45 46 47 48 49 50

000
ASUS44 KMEG 042300
RWRTN
TENNESSEE HOURLY STATE WEATHER ROUNDUP
NATIONAL WEATHER SERVICE MEMPHIS TN
600 PM CDT SAT JUL 04 2015

TNZ002-004-019-021-049-052-054-088>092-050000-
WEST TENNESSEE

CITY           SKY/WX    TMP DP  RH WIND       PRES   REMARKS
MEMPHIS INTL   PTSUNNY   79  70  74 SW6       29.98R
NWS MEMPHIS      N/A     75 N/A N/A MISG        N/A
JACKSON        CLOUDY    77  69  76 SW8       29.98S
DYERSBURG        N/A    N/A N/A N/A MISG        N/A
PARIS          PTSUNNY   75  70  83 N3        29.97S
LEXINGTON      SUNNY     75  70  83 SW6       29.97S
$$

TNZ008-025-027-028-033-062-065-066-050000-
NORTH MIDDLE TENNESSEE

CITY           SKY/WX    TMP DP  RH WIND       PRES   REMARKS
NASHVILLE      CLOUDY    76  73  91 S5        29.97S THUNDER
CLARKSVILLE    CLOUDY    78  69  73 NE6       29.96S
SMYRNA         CLOUDY    77  72  83 S7        29.98S THUNDER
COOKEVILLE     SUNNY     79  72  78 SW5       29.99F
CROSSVILLE     PTSUNNY   75  67  76 VRB5      30.05S
$$

TNZ061-075-076-078-094-096-097-050000-
SOUTH MIDDLE TENNESSEE

CITY           SKY/WX    TMP DP  RH WIND       PRES   REMARKS
FAYETTEVILLE     N/A     75  68  78 SW6       30.00R
TULLAHOMA      MOSUNNY   73  70  88 CALM      30.01S
WINCHESTER     SUNNY     75  72  88 CALM      30.00S
SHELBYVILLE    CLOUDY    75  73  94 SW7         N/A
$$

TNZ017-018-042-046-047-050000-
NORTHEAST TENNESSEE

CITY           SKY/WX    TMP DP  RH WIND       PRES   REMARKS
TRI CITIES     CLOUDY    74  67  78 CALM      30.03S
ELIZABETHTON   PTCLDY    73  66  78 W6        30.04S
$$

TNZ012-013-036-069-073-074-050000-
CENTRAL EAST TENNESSEE

CITY           SKY/WX    TMP DP  RH WIND       PRES   REMARKS
KNOXVILLE      PTSUNNY   77  68  73 SW14      30.00F
OAK RIDGE      CLOUDY    77  69  76 VRB3      30.02F
GATLINBURG     CLEAR     79  66  65 SW7       30.02R
$$

TNZ083-085-099-050000-
SOUTHEAST TENNESSEE

CITY           SKY/WX    TMP DP  RH WIND       PRES   REMARKS
CHATTANOOGA    PTSUNNY   81  67  62 S9        30.00F
$$

SKY/WX REPORTED AS FAIR MEANS FEW OR NO CLOUDS BELOW
12 THOUSAND FEET.



USA.gov is the U.S. government's official web portal to all federal, state and local government web resources and services.